This is the latest recevied weather packets stored in our database for station/object WC4PEM-4. If no packets are shown the sender has not sent any weather packets the latest 10 day(s).
| Time | Temp. | Humidity | Pressure | Rain* | Wind** | Luminosity | Snow |
|---|---|---|---|---|---|---|---|
| 1787939350 | 32.78° C | 55% | 1017.4 hPa | 0 mm | - | - | - |
| 1787939188 | 33.33° C | 54% | 1017.1 hPa | 0 mm | - | - | - |
| 1787939005 | 33.33° C | 56% | 1017.3 hPa | 0 mm | - | - | - |
| 1787938888 | 33.33° C | 56% | 1017.3 hPa | 0 mm | - | - | - |
| 1787938588 | 32.78° C | 55% | 1017.4 hPa | 0 mm | - | - | - |
| 1787938288 | 32.78° C | 55% | 1017.5 hPa | 0 mm | - | - | - |
| 1787938158 | 32.78° C | 56% | 1017.5 hPa | 0 mm | - | - | - |
| 1787937988 | 32.78° C | 56% | 1017.5 hPa | 0 mm | - | - | - |
| 1787937689 | 32.78° C | 56% | 1017.7 hPa | 0 mm | - | - | - |
| 1787937389 | 32.78° C | 57% | 1017.7 hPa | 0 mm | - | - | - |
| 1787937088 | 32.78° C | 55% | 1017.7 hPa | 0 mm | - | - | - |
| 1787936788 | 32.78° C | 55% | 1017.8 hPa | 0 mm | - | - | - |
| 1787936488 | 32.78° C | 58% | 1017.8 hPa | 0 mm | - | - | - |
| 1787936432 | 32.78° C | 56% | 1017.7 hPa | 0 mm | - | - | - |
| 1787936188 | 32.78° C | 56% | 1017.7 hPa | 0 mm | - | - | - |
| 1787935888 | 32.22° C | 56% | 1017.9 hPa | 0 mm | - | - | - |
| 1787935588 | 32.22° C | 56% | 1017.7 hPa | 0 mm | - | - | - |
| 1787935289 | 32.22° C | 56% | 1018 hPa | 0 mm | - | - | - |
| 1787934988 | 32.22° C | 55% | 1018 hPa | 0 mm | - | - | - |
| 1787934843 | 32.22° C | 57% | 1018 hPa | 0 mm | - | - | - |
| 1787934689 | 32.22° C | 57% | 1018 hPa | 0 mm | - | - | - |
| 1787934389 | 31.67° C | 57% | 1018 hPa | 0 mm | - | - | - |
| 1787934089 | 31.67° C | 57% | 1018.1 hPa | 0 mm | - | - | - |
| 1787933789 | 31.67° C | 59% | 1018.2 hPa | 0 mm | - | - | - |
| 1787933629 | 31.67° C | 58% | 1018.1 hPa | 0 mm | - | - | - |
* Rain latest hour (hover to see other rain measurements)
** Current wind speed in m/s (hover to see current wind gust speed)